Regional Weather Roundup
Issued by NWS Charleston, SC

Current Version | Previous Version | Graphics & Text | Print | Product List | Glossary On
Versions: 1 2 3 4 5 6 7 8 9 10 11 12 13 14 15 16 17 18 19 20 21 22 23 24 25 26 27 28 29 30 31 32 33 34 35 36 37 38 39 40 41 42 43 44 45 46 47 48 49 50
000
ASUS42 KCHS 262127
RWRCHS

REGIONAL WEATHER ROUNDUP
NATIONAL WEATHER SERVICE CHARLESTON SC
500 PM EDT FRI MAY 26 2017

NOTE: "FAIR" INDICATES FEW OR NO CLOUDS BELOW 12,000 FEET WITH NO
SIGNIFICANT WEATHER AND/OR OBSTRUCTIONS TO VISIBILITY.

NOT ALL STATIONS ARE QUALITY CONTROLLED. USE DATA WITH CAUTION...
ESPECIALLY DEWPOINT OBSERVATIONS.

SCZ027-030-031-034>040-042>050-262200-
...SOUTHEAST SOUTH CAROLINA...

CITY           SKY/WX    TMP DP  RH WIND       PRES   REMARKS
N CHARLESTON   MOSUNNY   83  53  35 W14G20    29.95F
WATERFRONT PRK   N/A     79  62  56 S13       29.93F
JOHNS ISLAND   FAIR      81  61  50 S12       29.96S
PINOPOLIS        N/A     81  57  44 W9G16     29.89S
MONCKS CORNER  FAIR      82  50  32 W5        29.95S
SUMMERVILLE    FAIR      82  54  36 W10G16    29.96F
BEAUFORT MCAS  SUNNY     84  56  38 W10G18    29.97F
BEAUFORT ARPT  FAIR      82  54  36 W10       29.97S
HILTON HEAD IS SUNNY     84  54  34 W12       29.99S
WALTERBORO     CLEAR     82  54  36 W10       29.97F
ALLENDALE      FAIR      82  54  36 VRB7      29.96F

...SOUTHERN MIDLANDS AND PEE DEE...

CITY           SKY/WX    TMP DP  RH WIND       PRES   REMARKS
GEORGETOWN     FAIR      81  50  34 W12G20    29.95S
KINGSTREE      FAIR      82  52  34 SW12      29.94S
ORANGEBURG     SUNNY     84  52  33 NW14      29.96S
BARNWELL       FAIR      84  55  37 W10       29.97S
AIKEN          FAIR      81  54  39 W14       30.00F
MANNING        FAIR      82  57  42 W14G29    29.95S
COLUMBIA       MOSUNNY   84  53  34 W17       29.94F
SUMTER         SUNNY     84  53  35 W8        29.92S
FLORENCE       SUNNY     83  52  34 SW17      29.93S
MYRTLE BEACH   SUNNY     82  55  39 W13       29.93S
N MYRTLE BEACH SUNNY     83  54  36 W9        29.91F

$$

GAZ063-065-086>088-099>101-113>116-118-119-134>141-150-262200-
...SOUTHEAST GEORGIA...

CITY           SKY/WX    TMP DP  RH WIND       PRES   REMARKS
SAVANNAH ARPT  MOSUNNY   87  50  27 W15       29.98F
HUNTER AAF     SUNNY     85  61  44 W6        29.96S
FORT STEWART   SUNNY     85  51  30 W7        29.97F
STATESBORO     SUNNY     85  54  34 W8        29.99S
SYLVANIA       CLEAR     84  57  39 W8G17     30.00S
CLAXTON        FAIR      83  55  37 SW12      30.00S

...CSRA...CENTRAL AND FAR SOUTHEAST GEORGIA...

CITY           SKY/WX    TMP DP  RH WIND       PRES   REMARKS
THOMSON        SUNNY     82  58  42 NW10      30.03S
AUGUSTA-BUSH   SUNNY     87  56  34 VRB7      29.96F
AUGUSTA-DANIEL SUNNY     84  53  34 W9G18     29.98F
SWAINSBORO     FAIR      84  59  42 NW7       30.01S
VIDALIA        SUNNY     84  57  39 W8        30.01S
EASTMAN        FAIR      85  39  19 W6        30.04S
HAZLEHURST     FAIR      86  57  37 W3        30.00S
ALMA           SUNNY     86  53  32 W9        30.01S
WAYCROSS       SUNNY     89  57  34 NW10      30.00S
JESUP          FAIR      86  46  25 NW8G16    30.00S
BAXLEY         FAIR      86  59  39 W3        30.01S
BRUNSWICK      SUNNY     86  55  35 W8        30.00S
SAINT SIMONS   SUNNY     81  61  50 S10       29.99F

$$

SCZ027-028-034-036>038-045-046-048>050-GAZ119-141-262200-
...LAKE AND SUPPLEMENTAL COASTAL OBSERVATIONS...

STATION/POSITION TIME  TEMP    WIND        PRES    WAVE   SWELL
                       AIR SEA DIR/SP/G            HT/PER HT/PER/DIR
                 (UTC) (F)     (DEG/KT/KT) (MB)    (FT/S) (FT/S/D)
WINYAH BAY       2030   81     270/  8     1013.0F
LAKE MURRAY      2050   79     260/ 11/ 13 1013.5F
ACE BASIN NERRS  2030   83     250/  4     1015.0S
FORT PULASKI     2100   81     290/ 11/ 14 1015.4
SAPELO ISLAND    2100   85     280/  8     1015.0

$$

ANZ835-935-AMZ111-154-330-350-352-354-370-450-454-472-262200-
...C-MAN AND BUOY OBSERVATIONS...

STATION/POSITION TIME  TEMP    WIND        PRES    WAVE   SWELL
                       AIR SEA DIR/SP/G            HT/PER HT/PER/DIR
                 (UTC) (F)     (DEG/KT/KT) (MB)    (FT/S) (FT/S/D)
BUOY 41004       2110   74 75  240/ 16/ 19 1014.5
BUOY 41008       2050   76 78  180/ 10/ 10 1015.7F   1/ 8   2/ 90/ 8
FOLLY BEACH CMAN 2100   77     220/ 18/ 21 1015.2F
CAPERS NEARSHORE 2108   81 76  230/ 17/ 23 1013.9F
FRIPP NEARSHORE  2108   77 78  220/ 14/ 16 1015.1F


STATION/POSITION TIME  TEMP    WIND        PRES    WAVE   SWELL
                       AIR SEA DIR/SP/G            HT/PER HT/PER/DIR
                 (UTC) (F)     (DEG/KT/KT) (MB)    (FT/S) (FT/S/D)
5E ST. MARYS GA  2100      80                N/A     1/ 7
FRYING PAN BUOY  2110   74 75  220/ 17/ 23 1013.5
BUOY 41025       2050   75 80  250/ 17/ 21 1011.1S   6/ 8   2/220/ 8
CAPE LOOKOUT NC  2100   76     220/ 12/ 17 1011.5S
BUOY 41002       2050   77 77  260/ 10/ 14 1015.2F   6/ 7   5/220/ 7
BUOY 41010       2110   78 79  270/  8/ 10 1016.4
ST AUGUSTINE FL  2100   75 79  130/  8/  9 1017.3F


$$




USA.gov is the U.S. government's official web portal to all federal, state and local government web resources and services.